Wind_Speed
13 12 12 13 13 14 14 14 14 14 13 13 13 13 13 13 14 14 14 14 15 16 16 15 15 16 17 19 20 20 22 22 20 17 15 14 12 9 7 5 8 11 11 12 12 11 9 11 11 10 10 9 9 9 11 11 8 7 8 12 13 13 15 15 15 13 11 13 16 10 6 10 8 8 6 5 9 10 7 7 5 2 1 2 3 6 13 17
13 13 13 13 14 14 14 14 13 13 13 13 13 13 13 13 14 14 14 15 15 15 16 15 15 16 17 19 20 19 20 20 20 19 13 9 4 0 2 7 11 11 10 12 12 12 10 10 11 12 10 8 8 10 12 10 11 10 9 11 13 14 14 15 16 14 14 15 17 12 4 7 8 8 8 7 11 11 10 8 8 7 5 3 4 9 13 15
14 14 14 14 14 14 14 14 14 14 13 13 13 13 13 13 14 14 15 15 15 16 16 15 15 16 16 19 20 18 18 19 18 10 1 2 5 6 6 9 12 11 10 14 13 13 12 10 10 12 11 9 9 11 12 11 11 11 10 12 13 15 15 15 16 16 16 14 18 15 5 6 8 8 8 9 13 11 12 10 8 9 8 7 8 10 13 15
14 14 14 14 14 14 14 14 14 14 14 14 14 14 14 14 14 15 16 16 16 16 16 15 15 15 15 19 20 16 16 16 9 4 8 4 4 3 7 11 14 12 11 14 13 13 13 11 10 13 12 10 10 11 13 12 10 10 12 13 12 14 16 14 14 15 13 11 15 14 5 6 8 8 9 10 12 11 13 11 7 7 8 10 11 11 13 15
15 14 14 15 14 15 15 14 14 14 14 14 14 14 14 15 15 16 16 16 16 16 16 15 14 14 14 18 17 13 13 9 2 10 6 5 7 4 9 13 16 12 11 11 13 13 13 13 12 12 11 10 11 11 13 15 11 10 14 15 13 12 14 12 11 12 10 9 13 13 8 7 6 8 10 11 12 9 5 4 4 4 6 10 12 13 13 15
15 15 15 15 15 15 15 15 15 14 14 14 14 14 15 16 16 16 16 16 17 15 15 14 13 13 14 16 14 9 8 5 2 6 4 3 7 9 12 15 15 12 10 8 12 13 14 14 13 12 11 11 14 14 13 16 14 11 12 15 15 11 11 10 10 11 10 11 14 14 10 7 8 9 10 11 13 7 3 3 2 4 5 9 12 13 13 14
15 15 15 15 15 15 15 16 16 15 15 15 15 15 16 16 16 16 16 17 16 15 14 13 13 12 12 14 11 7 7 9 5 3 7 9 11 11 14 16 13 10 9 8 13 14 14 16 15 13 12 12 15 15 14 15 16 14 12 14 16 12 12 11 9 11 11 14 15 12 9 10 12 11 10 11 14 10 1 0 5 5 5 9 12 13 13 14
15 15 15 15 15 16 16 16 16 16 16 16 15 16 17 17 17 17 17 17 16 16 14 12 12 10 10 11 9 6 8 12 8 4 9 11 9 10 15 15 10 9 9 9 12 13 15 17 18 14 13 13 13 15 15 14 15 16 14 12 13 13 13 12 9 11 12 12 12 11 11 13 13 11 11 12 14 12 3 3 6 6 7 10 12 14 13 14
15 15 15 16 16 16 16 16 16 16 16 16 16 17 18 17 18 18 18 18 17 16 14 11 11 9 8 9 8 7 6 6 6 5 5 6 8 13 16 13 9 9 9 9 11 14 14 15 18 15 13 13 13 15 16 14 12 15 17 11 10 13 15 14 11 11 12 10 11 14 15 15 14 11 12 14 15 10 5 6 7 7 9 11 11 13 13 13
16 16 16 16 16 16 16 16 16 16 16 17 16 17 17 17 18 18 18 19 17 16 14 11 10 8 8 9 8 8 2 0 3 3 3 7 13 17 16 12 10 9 10 10 11 15 14 13 17 14 11 11 12 14 16 16 8 10 17 14 10 12 14 15 14 13 11 11 12 14 15 15 14 11 11 14 16 11 8 11 9 8 10 11 11 11 11 12
17 17 17 16 16 16 16 16 16 16 16 16 16 16 17 17 18 18 18 19 17 15 12 9 9 8 10 9 9 7 2 1 1 3 8 13 16 18 16 12 10 10 11 11 11 14 15 14 13 11 8 8 12 13 15 16 8 7 15 15 13 12 12 13 15 15 12 11 13 13 13 14 13 12 12 11 10 12 13 13 11 10 9 10 10 11 10 11
17 17 17 17 17 16 16 17 16 17 16 16 16 16 17 17 18 19 19 19 17 14 11 9 8 8 10 10 13 12 5 6 8 12 16 17 16 15 14 12 11 12 12 12 12 13 15 12 11 12 8 6 11 10 11 15 10 8 12 14 15 15 14 14 14 15 14 12 13 11 11 14 15 14 15 11 8 9 14 13 12 11 9 9 10 10 9 11
17 17 17 17 17 17 17 17 17 17 17 17 17 17 18 17 19 21 20 18 15 13 12 9 8 9 11 10 11 14 14 16 17 18 18 15 13 11 11 11 11 13 14 14 11 10 13 9 10 14 8 6 11 5 4 13 12 10 12 11 12 13 14 16 15 14 15 12 13 13 10 13 17 17 16 13 10 11 12 13 12 10 8 8 9 9 9 11
18 18 18 18 18 17 17 17 18 18 17 18 18 18 19 19 22 24 20 18 15 12 11 8 8 10 10 11 13 13 16 17 17 16 13 9 8 8 8 7 8 10 13 14 11 8 10 9 10 12 8 9 7 5 6 12 11 11 12 10 10 10 12 18 18 16 16 11 14 15 11 10 14 17 18 13 12 13 13 13 12 10 9 8 9 10 10 10
20 19 19 18 18 18 18 18 18 18 18 19 19 20 22 23 25 24 19 17 14 10 9 8 10 9 9 13 13 11 10 10 9 8 7 5 6 7 6 6 8 9 11 13 11 7 9 11 10 10 10 9 5 7 10 9 9 11 11 11 11 10 10 17 20 20 18 13 16 16 9 10 10 11 16 14 13 14 13 14 13 12 11 9 9 9 9 9
22 22 21 21 20 19 19 19 18 19 19 20 21 22 23 25 25 21 18 14 9 6 6 7 9 10 10 8 4 4 6 4 3 3 3 4 6 8 8 9 9 9 11 11 9 8 10 12 11 10 11 10 8 10 10 8 9 11 12 11 12 13 9 12 17 21 20 14 16 17 9 8 8 8 13 14 14 14 13 14 14 13 12 10 8 9 8 8
22 23 23 24 23 21 19 19 19 20 20 22 24 23 24 24 20 15 12 7 3 5 7 7 7 8 9 6 3 5 4 3 2 3 5 7 9 10 9 8 8 9 11 11 10 10 11 11 10 10 10 10 11 11 11 11 11 11 12 11 12 17 12 10 13 18 22 18 16 18 14 10 7 8 12 13 13 14 15 14 14 13 11 10 9 8 9 9
22 23 22 23 24 23 21 20 21 21 21 24 25 24 25 19 12 8 5 1 3 4 7 6 5 6 7 7 6 5 2 3 4 6 11 12 9 9 8 6 6 8 11 10 11 12 11 10 10 10 10 11 13 13 13 14 14 13 13 11 11 15 15 12 11 14 21 21 18 17 17 17 11 8 10 13 14 14 15 14 13 12 12 10 9 9 10 10
21 21 22 22 22 24 24 22 23 22 21 25 24 23 19 9 4 3 2 3 4 5 4 4 8 7 7 5 6 5 4 6 7 10 13 11 7 8 9 8 7 9 11 10 12 14 11 10 11 11 12 15 17 17 16 12 14 17 16 13 11 12 14 14 10 14 20 20 18 18 16 20 19 14 11 12 14 14 14 14 11 11 12 10 9 9 9 9
21 21 22 22 21 22 24 23 23 21 22 24 21 18 11 4 3 2 3 5 9 11 12 10 10 13 15 11 9 9 8 8 9 10 10 8 7 9 10 9 8 10 12 12 13 14 12 11 13 14 15 19 19 19 18 10 10 16 17 14 13 11 12 15 12 14 18 16 16 19 17 19 21 18 15 12 13 14 14 14 12 11 11 10 10 10 9 8
22 21 22 22 21 22 23 24 23 22 23 21 16 12 6 4 7 5 5 9 13 15 17 17 16 17 17 15 14 13 10 8 8 8 8 7 7 8 8 10 10 9 12 16 13 12 13 13 15 17 17 18 18 19 17 11 10 15 15 13 13 12 11 14 14 13 16 13 12 17 18 18 19 17 16 14 13 14 14 14 13 13 12 10 11 11 10 7
23 22 22 22 21 22 25 25 22 23 23 16 10 7 5 6 7 7 8 10 13 14 17 19 19 17 15 16 15 11 9 9 8 9 10 10 9 9 8 11 12 11 13 16 12 12 15 15 16 18 16 16 18 19 17 13 13 13 12 11 11 11 10 11 14 13 13 10 10 16 16 15 17 17 15 16 14 13 14 14 13 13 13 11 11 11 9 8
22 22 22 22 21 23 24 24 23 22 16 9 8 8 7 7 6 6 7 8 12 13 14 15 14 13 12 12 9 7 9 9 8 6 9 12 11 11 10 10 12 13 14 17 15 13 13 14 16 17 15 16 18 20 19 12 12 11 11 11 10 12 12 8 12 15 13 10 9 12 13 12 14 14 13 14 14 13 13 14 12 12 12 11 11 9 9 10
22 22 22 23 23 23 22 25 25 16 7 7 10 10 8 7 5 7 6 7 10 8 7 8 8 9 8 4 3 8 8 6 6 4 7 12 11 11 12 11 12 13 14 20 21 17 14 13 15 17 15 17 18 20 19 12 9 12 12 12 10 14 15 8 11 14 12 11 10 9 9 10 12 13 12 11 12 13 12 13 12 11 11 10 10 9 9 10
23 23 23 24 24 23 25 25 18 7 6 11 11 7 5 5 5 5 5 7 7 3 4 6 6 5 4 3 5 6 6 6 8 6 7 12 11 9 10 9 9 12 16 21 22 16 15 12 15 19 16 17 18 17 19 14 9 11 14 14 12 14 14 9 12 14 10 10 12 11 9 8 12 15 14 13 13 13 11 12 13 12 12 11 10 10 10 9
24 24 25 25 24 25 24 16 7 6 11 13 8 3 3 3 3 3 4 6 5 2 5 6 5 4 4 6 6 5 5 4 6 7 9 12 11 9 9 8 7 11 15 17 14 10 12 12 14 19 19 19 18 15 19 18 10 9 12 13 12 13 14 12 14 14 8 8 13 15 11 7 11 15 15 15 15 16 13 12 15 13 12 12 11 11 11 10
26 25 26 25 24 24 19 11 10 12 12 8 3 4 3 3 2 2 3 5 4 1 3 3 3 3 3 3 5 5 4 2 1 5 9 11 11 9 10 10 8 9 11 11 10 9 12 15 15 19 19 17 15 13 18 20 11 8 14 14 11 13 15 14 13 12 8 6 10 16 14 8 8 12 15 17 16 18 16 14 15 14 13 14 13 12 10 9
28 28 29 27 25 24 20 17 16 14 11 6 4 5 4 3 4 3 4 6 2 1 1 2 3 3 2 3 6 8 8 7 4 3 7 11 12 9 10 11 10 10 12 11 11 11 14 16 17 19 18 14 13 13 18 22 13 7 16 16 11 12 14 13 11 10 8 5 7 14 15 10 7 7 12 16 16 17 18 18 18 17 16 15 14 13 11 10
30 30 30 28 28 24 18 16 15 14 11 6 5 5 4 3 4 3 4 4 1 2 0 2 3 3 5 5 8 11 10 7 5 2 7 11 11 7 8 10 11 11 14 15 11 10 12 14 15 18 14 11 14 14 19 22 12 9 16 15 11 10 11 11 10 9 7 6 9 14 16 11 7 7 10 12 15 16 17 18 18 18 16 15 14 14 13 11
31 31 30 29 26 18 10 10 14 14 8 6 6 3 2 3 3 4 5 3 1 1 1 3 3 3 5 6 7 8 9 8 7 4 6 10 11 7 6 7 10 10 12 15 12 8 11 14 13 14 12 11 14 14 18 22 13 12 15 12 10 9 8 8 7 7 7 8 11 15 18 14 9 8 10 10 13 16 15 15 16 17 17 16 15 14 13 11
33 34 32 25 17 10 5 5 7 9 9 8 7 5 2 2 2 5 4 1 2 1 2 3 3 3 5 8 6 4 6 7 8 9 7 9 11 9 7 6 7 9 9 12 11 8 11 15 12 12 12 13 14 13 16 20 14 12 13 11 10 8 6 7 6 6 7 8 12 14 17 16 11 7 9 12 16 16 13 14 15 17 17 16 14 13 12 12
37 36 26 15 9 7 7 4 1 5 10 9 8 4 2 2 3 6 4 1 2 1 2 3 4 5 9 10 8 6 6 6 9 11 9 10 10 10 11 9 8 9 9 11 12 8 10 14 14 13 14 14 15 13 14 17 14 12 12 11 11 9 7 8 9 8 8 7 8 13 14 13 11 7 5 10 15 16 14 13 14 16 17 17 15 14 12 12
38 29 14 6 5 5 8 6 2 5 10 11 8 3 2 4 4 5 5 3 2 1 2 5 7 10 12 10 7 7 7 7 8 10 11 12 11 11 13 13 12 11 8 11 13 9 9 13 17 16 13 14 16 12 12 14 14 14 13 12 11 10 9 10 9 8 9 6 5 10 12 9 9 8 8 10 11 13 14 13 12 12 12 14 15 13 12 12
30 16 7 4 3 3 5 5 4 8 13 11 6 2 4 6 5 6 6 4 3 5 7 8 10 13 12 8 6 5 7 7 8 9 11 12 10 11 12 13 15 12 7 11 12 10 10 11 16 17 13 15 17 14 13 14 14 14 13 11 10 8 7 8 8 8 10 8 7 9 9 7 7 5 7 11 9 8 10 10 10 8 5 7 10 11 12 12
20 8 5 4 1 2 5 6 7 13 15 9 4 4 5 6 5 5 5 4 4 5 9 12 12 12 9 5 5 7 6 4 8 9 10 12 10 11 11 11 14 12 8 11 9 10 12 10 15 17 13 17 17 14 15 14 12 12 11 11 10 7 5 4 2 3 6 7 8 9 6 5 5 2 3 7 8 9 9 9 9 8 7 8 9 11 12 12
13 6 5 3 3 1 6 9 11 15 13 5 3 5 5 5 4 2 2 3 4 5 11 13 8 6 5 2 4 6 4 3 8 8 8 11 11 12 13 11 14 12 9 11 9 9 10 9 16 18 14 18 18 14 16 14 9 10 11 12 11 7 4 4 3 4 3 6 6 8 7 5 4 4 7 9 9 9 10 10 10 9 10 11 10 11 12 12
11 8 5 4 7 3 7 12 13 12 7 4 4 5 5 6 5 3 1 3 5 6 8 8 2 1 4 2 3 7 7 6 8 7 7 10 10 12 14 12 14 14 10 8 7 10 9 8 16 19 15 18 18 13 15 15 9 8 10 11 9 4 3 5 5 5 6 7 5 8 10 9 6 5 8 13 13 11 11 12 11 10 11 12 11 11 12 13
11 7 4 4 8 5 6 15 15 8 4 4 7 8 7 7 6 4 4 4 7 7 7 6 1 1 2 3 1 7 8 6 7 6 7 9 8 11 14 11 12 14 11 6 5 10 10 7 13 17 15 17 17 12 12 14 11 8 9 9 8 6 5 6 6 6 9 7 5 8 10 10 9 5 7 11 14 14 13 12 11 12 12 12 11 12 13 13
9 4 1 4 7 4 5 14 13 6 2 4 7 7 6 8 9 7 6 7 8 7 6 6 4 3 2 3 1 5 7 6 6 6 6 7 8 12 14 10 11 15 12 7 6 9 9 5 10 16 16 16 14 10 10 12 10 9 9 9 7 7 7 7 5 4 7 7 5 7 8 8 9 8 7 9 12 14 14 12 11 12 13 11 11 12 12 13
5 2 1 6 6 2 7 12 10 3 3 5 7 7 8 10 10 11 9 8 7 5 4 5 4 3 3 4 4 4 6 7 6 5 5 7 8 11 13 12 12 15 13 9 8 9 8 5 9 14 16 15 12 10 11 12 11 9 10 10 9 7 6 7 6 4 5 6 6 6 6 6 7 8 9 7 8 11 12 10 10 10 11 11 11 11 11 11
3 2 2 5 4 5 9 8 5 3 4 5 7 9 10 9 9 13 12 7 7 7 6 6 5 4 5 4 3 3 5 6 7 5 5 8 8 8 12 14 13 14 13 8 9 9 6 6 10 13 14 13 12 12 12 13 13 10 8 10 10 8 7 8 7 6 5 4 5 5 5 4 5 7 10 9 5 6 7 7 7 8 10 11 10 11 11 10
4 3 3 4 1 9 7 3 3 3 4 6 8 10 11 9 7 10 10 5 6 7 6 5 5 6 6 3 1 4 5 5 7 6 5 9 8 7 13 16 14 14 12 7 9 8 3 4 10 12 11 12 14 14 12 13 15 12 9 9 10 9 8 7 6 7 6 3 1 3 3 2 4 3 5 5 2 3 3 4 5 7 10 11 11 11 11 10
4 3 2 3 3 9 4 3 2 2 4 7 10 11 10 6 5 8 8 5 4 3 3 3 4 4 2 2 2 5 5 5 7 5 4 7 7 8 17 19 15 13 11 7 10 9 2 3 9 10 10 11 13 14 11 12 14 12 10 10 10 10 10 8 5 6 7 5 3 3 4 3 5 4 3 3 3 2 2 2 5 7 9 10 12 13 12 11
4 3 0 2 3 7 3 4 3 5 7 10 13 12 8 3 5 7 8 6 4 2 2 3 3 3 2 3 5 6 4 3 6 6 4 6 5 9 18 21 15 12 10 6 8 8 4 6 9 10 11 11 10 11 11 12 12 10 10 11 12 13 13 10 6 4 6 7 5 4 4 4 5 4 5 5 4 4 3 4 5 7 9 10 11 12 12 12
5 2 2 0 3 6 2 2 3 6 8 12 13 13 11 6 4 7 9 9 6 4 4 3 2 3 3 4 5 5 4 2 4 5 4 5 6 9 16 19 15 13 10 4 4 6 5 6 9 10 11 11 11 11 12 12 11 10 12 15 15 16 16 11 7 6 7 6 5 4 3 7 7 6 6 6 5 5 6 6 6 7 9 10 10 11 11 11
4 2 1 2 1 3 3 2 2 5 7 9 10 9 11 10 7 6 7 7 4 4 5 5 3 3 3 4 4 5 4 3 4 4 4 7 7 8 14 18 15 12 9 3 3 4 4 6 9 10 10 10 9 9 11 13 13 12 16 18 17 17 17 11 7 7 7 5 5 7 3 4 6 7 6 5 4 5 6 7 7 7 9 10 10 10 10 10
3 3 4 5 2 2 2 2 1 4 7 8 6 6 8 11 11 6 2 3 2 2 4 4 3 3 4 6 5 4 4 4 4 4 5 7 8 9 13 15 15 13 8 3 5 5 5 7 7 8 11 11 7 6 10 14 15 15 17 18 17 17 17 13 9 8 8 6 7 9 7 3 3 4 5 4 3 4 5 7 8 8 8 9 9 10 11 11
3 3 3 4 3 4 5 4 5 9 11 9 4 4 8 13 13 9 3 4 5 3 3 2 3 6 5 5 4 4 4 4 3 5 5 7 10 11 11 12 13 13 10 6 5 4 5 7 6 6 11 11 7 7 11 15 15 15 16 17 18 18 17 16 12 9 9 9 5 3 4 6 4 1 5 6 4 2 5 6 7 8 9 9 10 11 12 12
4 2 2 3 4 7 9 10 9 10 11 8 4 4 9 13 14 11 6 5 6 3 2 1 3 5 6 5 3 4 5 3 3 5 3 5 11 12 10 10 10 11 10 8 6 5 4 5 5 5 9 9 6 7 12 15 15 15 16 17 18 18 16 16 14 9 9 10 4 3 3 6 5 3 4 5 3 3 5 6 7 9 10 10 11 12 12 12
4 3 4 5 6 8 9 9 7 6 7 6 5 7 10 12 13 13 10 7 6 3 1 1 3 5 7 6 5 6 6 3 0 1 2 2 8 9 9 8 7 10 11 8 6 7 4 3 4 3 6 9 9 7 10 15 16 15 16 17 18 18 16 16 16 10 8 11 8 5 7 6 1 2 3 3 3 4 6 7 8 9 10 11 11 12 12 12
6 6 6 6 6 6 7 8 7 6 5 4 5 8 10 11 14 16 12 6 5 5 3 3 6 5 6 7 8 9 7 6 5 4 4 2 1 1 3 4 4 9 11 8 6 7 5 3 4 4 5 9 12 10 10 14 16 15 16 18 19 19 16 15 15 12 11 11 10 9 8 4 3 4 3 4 4 4 6 8 7 8 10 11 11 11 12 12
9 7 6 6 5 5 7 9 8 6 4 3 6 9 9 12 15 15 10 2 4 7 7 7 8 6 4 7 9 8 6 6 6 5 5 4 3 5 4 1 2 4 8 8 6 5 4 3 3 4 4 8 13 14 11 11 13 12 14 18 19 17 15 15 15 15 15 12 9 8 6 1 4 2 1 2 4 4 5 7 7 7 9 11 11 11 11 11
Wind_Direction
360 360 358 357 353 352 350 349 348 346 346 345 346 345 344 344 343 341 339 338 336 333 332 331 333 335 332 331 327 319 318 319 312 302 289 284 283 268 268 310 322 319 315 298 273 262 253 230 213 204 209 203 214 212 193 196 195 194 213 228 233 234 235 236 235 233 238 248 253 249 207 227 236 213 202 194 223 235 225 198 186 189 222 351 45 107 124 135
358 359 357 354 352 350 348 347 346 345 343 343 343 343 343 341 340 339 338 338 334 332 331 330 331 332 332 329 325 322 319 312 299 293 285 282 289 250 351 349 334 328 309 281 257 244 237 226 201 193 207 204 205 200 190 189 193 202 214 224 232 235 236 238 236 227 231 244 256 262 220 224 242 219 191 213 233 221 224 206 181 203 198 174 136 135 137 148
358 357 355 353 352 350 348 347 346 345 343 342 341 340 340 339 339 337 337 336 333 331 328 328 328 328 330 326 325 325 318 305 292 283 217 102 88 68 11 345 336 336 301 268 253 242 235 236 210 195 206 210 202 197 196 188 193 211 218 227 232 233 237 236 227 221 231 242 256 262 230 225 238 214 195 228 244 227 230 225 196 212 206 188 168 156 156 162
356 355 353 351 350 349 347 347 345 344 341 339 338 336 336 336 335 332 332 330 327 325 323 326 323 324 327 323 327 330 313 299 290 122 117 140 135 53 355 346 339 337 304 267 247 239 234 237 222 204 209 213 206 203 205 192 190 210 218 232 232 228 233 226 217 220 229 233 249 258 232 225 218 200 213 231 239 232 234 232 216 220 200 186 174 168 172 173
352 351 349 347 347 345 344 344 342 340 337 335 334 333 331 331 329 328 330 330 327 322 320 319 316 322 320 318 331 330 307 299 82 119 142 194 190 257 323 338 338 335 314 271 232 225 225 223 214 209 214 215 206 204 211 200 195 216 220 231 234 229 227 211 207 214 214 218 235 240 228 228 199 196 221 224 232 241 237 200 192 231 201 183 177 174 177 182
347 345 344 342 342 340 340 338 336 335 334 333 333 331 328 327 328 328 330 331 329 325 320 315 314 319 311 317 326 311 293 296 88 142 186 215 221 265 309 329 336 332 316 268 220 213 213 211 206 206 209 214 210 205 210 202 200 222 220 224 230 228 219 203 201 204 201 213 223 231 235 229 207 212 223 222 234 246 54 83 211 260 223 181 175 175 177 185
343 343 341 340 338 336 336 333 332 333 330 330 330 329 327 326 327 327 328 327 327 326 322 315 315 315 310 318 309 274 258 266 278 211 238 262 263 286 313 324 330 324 309 258 220 211 205 204 205 203 206 211 212 207 208 202 204 223 223 214 216 212 212 210 207 202 201 216 223 230 234 224 224 229 221 220 235 239 84 131 260 272 216 176 172 174 179 186
342 341 340 338 337 334 333 330 330 330 327 327 327 325 324 325 325 324 325 324 325 323 320 316 315 317 314 316 302 269 254 257 271 276 272 276 279 310 323 324 321 310 299 254 227 218 208 205 207 204 208 211 208 206 202 202 207 219 226 213 206 208 213 213 213 209 205 216 225 228 231 229 231 239 232 225 231 234 233 248 255 251 193 176 180 176 180 188
340 339 339 337 336 334 332 331 330 328 327 326 323 321 320 322 322 321 324 323 321 317 315 312 309 314 307 303 293 280 270 256 268 274 294 315 308 319 323 319 311 302 283 252 235 229 220 210 209 207 217 215 206 205 196 201 210 212 219 215 203 207 211 209 205 204 205 212 222 226 233 236 232 237 242 235 234 233 235 249 244 219 190 181 186 178 182 190
339 338 337 336 335 333 332 331 331 329 327 325 321 319 317 319 319 319 322 321 319 314 309 305 306 305 288 285 272 267 284 239 271 267 297 322 313 314 316 307 304 292 264 249 234 228 229 221 213 212 232 227 207 206 198 202 211 203 212 215 209 208 209 211 209 203 204 209 216 224 231 235 228 224 236 233 230 229 230 239 229 207 200 188 185 180 183 191
338 337 336 336 333 332 332 331 330 328 326 324 319 316 314 315 315 316 319 318 315 311 306 298 300 291 273 272 255 252 23 49 274 310 302 309 309 306 304 297 293 275 256 247 234 227 231 236 228 212 223 228 205 207 207 208 212 194 204 210 210 213 208 207 211 210 210 212 211 221 234 233 220 214 232 229 209 214 225 229 219 212 207 189 185 180 183 193
338 337 336 335 333 331 331 330 329 328 325 324 319 316 315 313 313 312 314 314 309 305 300 289 291 281 267 263 248 247 280 299 292 299 298 301 297 292 290 285 274 258 249 244 236 225 225 241 247 216 204 213 199 204 213 205 206 196 195 206 207 214 215 203 206 207 209 214 204 212 236 232 220 214 224 221 188 200 219 221 214 213 207 190 185 182 185 192
337 337 336 334 334 333 332 332 329 328 326 323 319 317 315 312 313 315 313 307 299 295 291 279 274 268 260 260 255 254 269 282 289 292 292 292 284 280 276 273 265 250 242 243 240 223 219 234 246 225 213 218 196 175 184 184 195 201 196 212 206 210 219 206 201 198 200 207 192 199 229 229 221 216 215 212 202 204 212 216 213 208 204 193 185 185 188 190
336 336 336 335 335 333 333 332 329 328 325 323 320 317 314 313 318 320 312 299 291 284 277 263 257 258 253 259 269 271 274 281 284 281 280 280 278 278 266 254 256 246 234 237 241 226 218 224 240 233 222 233 205 133 159 176 189 199 196 213 211 210 216 203 199 195 195 193 182 197 228 234 222 210 202 197 200 209 213 215 212 206 203 196 188 187 187 191
336 335 335 334 334 333 333 332 330 329 326 323 319 316 314 317 321 317 305 297 291 271 256 250 245 247 261 267 272 275 272 272 270 268 266 268 282 285 274 253 257 251 230 230 235 224 214 212 225 225 207 223 220 176 184 181 186 194 195 205 210 217 208 194 196 196 196 188 185 201 226 234 230 199 186 188 197 207 216 217 213 209 203 194 190 189 186 188
333 333 332 332 333 332 332 331 330 329 327 323 319 317 318 320 317 307 299 299 287 240 220 241 239 242 270 281 281 261 243 229 245 281 266 266 291 292 292 282 263 244 225 220 220 211 205 205 213 218 205 204 206 194 188 184 190 197 203 205 201 207 199 182 190 197 200 192 192 207 225 230 222 185 176 189 200 205 217 222 214 211 204 194 191 189 188 185
328 328 328 329 331 332 331 329 327 327 326 325 322 319 320 319 310 300 304 303 262 202 211 246 252 242 255 261 279 270 228 191 250 298 290 284 288 287 290 283 254 226 212 205 204 199 196 200 207 213 210 205 203 199 196 195 195 192 201 209 198 200 200 175 177 191 199 201 200 207 224 235 207 172 178 187 195 205 217 222 216 213 206 195 192 189 190 190
325 324 323 324 326 328 329 326 324 326 323 324 325 322 322 319 303 300 317 299 165 190 219 239 241 241 243 229 252 282 224 226 264 285 291 289 274 266 269 274 261 220 200 193 196 194 192 196 201 205 205 205 201 201 203 198 193 187 190 203 196 196 203 190 171 179 192 202 208 204 215 230 218 184 186 187 190 202 213 219 216 213 209 198 194 195 193 193
324 323 322 321 320 322 325 324 323 325 323 324 328 324 318 302 264 243 193 189 191 209 249 228 200 237 292 268 247 274 271 263 272 273 275 274 254 246 250 255 255 220 200 190 189 192 193 191 199 205 203 201 200 203 207 203 198 191 187 194 189 187 201 201 182 175 185 196 207 207 210 224 225 211 198 189 193 206 212 215 215 211 211 204 199 203 199 195
326 325 323 321 319 319 320 320 321 323 324 325 326 320 310 274 265 219 185 240 245 252 273 270 232 249 282 284 274 288 290 270 264 261 257 249 241 248 246 234 228 216 208 198 187 190 196 197 203 206 205 201 200 205 208 215 215 193 184 189 190 192 198 202 195 176 185 196 203 207 212 219 226 220 206 192 193 207 214 213 215 213 209 207 206 210 206 194
326 324 324 322 321 319 317 317 318 319 322 322 317 313 316 318 312 315 312 282 264 259 262 266 262 262 270 275 282 292 294 277 261 256 244 226 224 238 228 209 211 208 207 207 192 187 200 209 211 207 207 202 198 205 206 210 209 185 181 188 191 203 201 196 195 175 185 204 202 204 214 219 223 221 207 197 195 202 212 213 213 213 211 211 213 214 208 185
325 324 324 319 319 319 315 315 315 317 318 312 296 298 313 309 304 313 313 290 274 264 256 260 263 265 268 269 275 280 276 268 264 252 222 204 212 224 205 194 209 206 199 207 197 188 203 215 212 202 205 204 195 200 200 197 193 180 185 193 192 203 197 186 189 178 182 204 204 199 211 221 221 220 208 200 201 203 209 215 215 213 212 213 215 215 206 182
325 324 321 318 318 316 314 316 317 314 309 297 284 289 298 299 292 292 291 288 287 270 251 252 253 254 257 261 258 238 243 251 266 260 197 192 210 221 216 202 209 208 199 202 199 195 203 211 208 198 199 203 194 191 193 192 192 192 190 191 194 193 189 185 186 184 185 203 215 200 207 224 218 215 208 198 203 209 212 218 221 220 218 217 215 212 203 193
326 322 320 321 318 316 318 319 315 305 289 295 295 287 282 282 281 287 288 284 287 275 241 234 242 250 249 261 213 206 231 244 253 254 173 192 207 210 225 223 209 209 205 202 202 206 207 200 196 194 190 192 187 185 191 195 195 201 199 197 198 187 192 200 179 178 186 203 224 207 203 223 209 199 199 197 206 213 213 215 220 222 224 224 219 215 207 201
326 323 321 321 319 322 323 317 311 297 295 302 295 285 270 261 264 283 297 287 274 243 187 199 216 231 205 178 185 211 252 247 237 236 189 203 210 201 216 226 218 212 207 204 204 210 211 197 190 192 189 189 189 186 192 197 194 198 202 205 200 182 190 193 165 170 185 198 210 208 209 218 203 200 202 197 200 207 207 209 215 219 220 223 222 220 214 203
327 324 322 320 321 324 321 314 313 309 303 296 280 244 236 259 271 274 287 284 270 189 156 179 196 180 168 181 185 212 249 230 227 231 210 211 218 224 220 208 219 219 208 204 205 212 207 193 191 194 192 193 195 193 192 194 197 193 192 202 202 182 182 178 166 176 198 197 194 203 220 222 198 204 205 194 193 200 202 205 214 219 218 220 221 221 217 205
326 324 322 319 320 321 313 300 301 297 292 287 223 195 238 284 265 253 272 270 266 187 146 164 187 169 173 195 183 208 262 322 262 216 204 206 207 227 231 202 202 219 210 201 202 210 198 187 193 197 194 191 194 195 188 192 206 190 176 187 194 185 186 182 179 193 206 185 178 196 218 237 211 201 195 189 191 199 200 204 214 218 218 218 219 220 217 205
325 325 322 318 315 310 297 286 286 277 270 268 206 215 257 279 254 252 278 281 267 135 150 120 117 130 167 244 224 232 284 313 271 183 168 194 196 207 228 214 203 200 200 203 199 196 194 191 194 196 193 188 192 191 181 191 209 171 163 180 189 190 193 189 192 208 202 179 185 195 207 232 225 181 175 183 193 201 202 206 213 214 215 217 218 217 213 204
325 324 321 318 313 304 290 274 264 260 262 249 213 226 236 245 264 253 257 276 187 147 344 117 144 160 178 231 242 235 260 269 239 116 134 185 200 217 240 227 211 193 194 210 206 180 188 200 197 194 193 186 190 185 177 191 202 147 153 170 175 182 189 192 204 210 199 206 214 194 192 217 224 178 172 183 196 204 204 207 211 211 211 211 212 212 207 200
325 322 321 318 312 305 290 257 249 251 244 204 191 190 204 232 255 246 242 259 206 146 115 162 194 176 180 240 262 231 232 238 221 183 155 176 192 218 248 235 219 198 189 206 207 175 184 203 202 196 196 185 183 178 177 191 187 146 157 163 159 171 179 190 213 213 205 218 219 198 190 208 226 198 184 188 201 205 205 206 206 206 207 207 208 208 202 195
326 323 321 318 306 293 274 260 251 231 210 192 177 163 215 238 227 250 254 260 273 245 165 218 222 189 226 270 283 233 226 239 218 200 185 173 179 196 210 208 211 198 182 193 199 185 187 196 193 196 202 188 175 167 175 191 186 160 169 168 159 168 174 183 202 212 218 219 214 203 194 204 225 210 182 191 205 206 206 206 201 202 206 206 207 204 199 193
327 325 324 319 297 262 235 250 331 197 196 183 167 163 229 235 221 243 258 275 268 208 179 272 292 275 283 292 282 251 241 237 213 204 198 182 177 189 198 193 187 186 178 179 186 184 187 189 182 188 200 191 175 165 172 187 191 183 181 175 170 168 171 188 194 200 215 219 204 195 190 204 225 224 187 195 204 204 205 209 205 204 207 207 206 199 193 191
328 329 332 331 299 259 232 238 265 192 179 168 168 178 227 242 253 264 285 295 278 340 296 286 304 302 298 296 278 248 228 215 202 203 199 189 185 188 197 200 193 192 183 175 178 175 175 184 184 183 189 192 187 176 172 181 189 193 188 180 182 174 173 190 190 192 205 201 180 185 191 209 225 227 222 213 204 198 202 210 214 214 210 208 204 193 185 187
333 338 340 327 302 260 222 214 198 171 164 162 172 186 222 245 272 293 297 292 288 306 300 298 308 303 291 280 272 235 218 207 190 197 195 188 190 186 192 201 199 201 188 175 180 176 171 178 184 184 178 187 196 189 177 177 183 194 195 193 197 185 179 191 187 191 196 179 162 178 194 211 207 199 210 214 210 196 195 200 207 210 201 194 190 182 183 185
343 354 325 313 304 200 183 176 166 160 159 160 183 209 232 256 285 304 300 299 302 298 299 304 303 293 282 262 239 226 232 204 179 195 196 186 189 186 186 190 192 200 189 174 177 177 180 176 178 186 180 181 194 192 179 178 179 190 199 202 209 200 180 177 170 181 184 174 169 179 198 212 198 158 167 198 205 201 199 196 199 201 188 183 183 181 184 187
347 345 305 315 10 130 176 171 162 162 165 172 210 221 243 264 279 306 314 306 304 300 304 306 298 282 289 262 193 197 215 201 180 191 194 186 189 188 187 181 185 204 201 176 171 174 184 170 170 184 185 181 194 191 183 187 178 180 198 202 204 209 188 161 103 70 144 183 177 182 200 200 208 232 205 194 197 197 200 201 205 203 189 187 191 187 185 188
345 335 300 333 4 9 182 176 164 160 167 185 223 246 272 275 257 234 244 279 284 288 299 304 307 290 291 273 176 172 183 191 183 188 188 185 187 186 187 179 180 206 215 188 178 178 178 154 164 182 182 183 195 189 188 204 193 178 194 189 181 197 210 186 165 139 177 199 172 175 201 205 209 215 191 195 204 201 198 197 195 190 186 192 194 189 186 186
336 319 279 337 358 359 188 181 167 151 154 205 246 262 276 282 263 228 222 253 279 280 281 288 278 174 274 294 185 172 181 183 178 184 182 181 183 181 183 176 179 202 215 214 202 183 178 151 162 183 181 177 189 187 191 208 211 206 194 171 169 185 189 190 186 173 186 203 190 183 200 210 211 198 172 190 202 202 197 189 184 186 189 194 190 185 185 183
328 293 259 24 3 356 180 180 168 148 184 234 267 273 282 289 282 267 245 245 270 272 262 269 251 207 255 289 237 182 187 189 180 179 182 182 174 175 182 177 181 197 202 213 210 182 183 165 161 182 181 172 182 193 194 194 198 216 202 180 195 207 194 191 192 184 188 200 206 191 193 205 211 209 196 188 192 198 196 186 191 198 191 188 184 180 182 180
333 277 86 42 6 16 151 163 163 171 230 251 276 282 295 297 293 292 277 255 258 259 256 264 248 232 248 239 240 227 208 204 189 179 189 179 159 169 184 181 180 187 190 208 210 182 180 171 158 173 177 176 185 197 197 184 179 200 198 185 195 199 196 195 196 212 206 201 203 194 198 208 201 206 216 205 184 186 188 184 196 200 183 177 177 175 177 176
326 296 77 37 21 135 144 154 172 221 246 264 279 283 292 293 293 300 298 272 246 244 260 272 263 271 277 259 246 233 220 206 187 189 192 172 161 170 184 184 182 178 179 200 207 188 184 171 162 168 175 184 188 188 196 190 183 195 196 187 190 188 190 190 186 205 220 216 208 202 214 211 172 185 211 216 193 165 172 183 187 180 172 169 167 170 171 170
305 344 38 16 83 160 170 207 213 224 244 269 288 290 291 290 286 297 306 294 253 238 240 258 259 267 283 305 274 211 219 198 182 196 191 172 173 175 178 184 186 175 172 188 190 185 208 179 168 167 174 186 182 182 201 197 185 196 207 195 193 192 197 196 177 183 197 210 199 192 209 174 109 131 191 189 152 140 164 193 181 164 164 162 158 163 168 170
330 347 29 26 160 183 222 289 244 258 272 286 301 298 291 283 266 285 301 301 275 239 211 243 259 271 293 327 249 213 209 189 179 184 184 179 176 169 175 182 184 175 175 187 178 172 215 194 167 161 166 178 177 179 202 203 187 196 209 201 197 194 199 209 187 166 180 188 168 170 197 156 90 84 116 112 117 153 159 184 172 153 153 160 159 163 169 171
330 299 226 42 185 206 263 334 311 308 314 316 316 314 314 285 244 278 299 300 286 271 260 252 260 286 286 263 247 224 210 193 179 174 190 194 163 153 170 178 183 182 182 188 174 169 197 187 165 160 161 165 171 177 193 201 195 198 201 197 197 193 194 206 203 174 183 191 185 190 185 139 97 104 117 120 146 159 136 142 154 148 152 161 160 164 168 168
315 271 192 319 216 217 251 345 302 304 318 322 319 321 330 325 270 276 289 289 280 273 287 286 276 289 268 245 238 226 231 231 184 175 181 181 152 149 170 179 187 186 178 186 188 176 194 188 170 171 168 166 176 183 185 189 191 195 195 192 193 194 193 196 196 190 189 182 189 219 163 109 114 129 121 126 149 145 130 134 143 147 154 160 162 165 167 167
330 338 328 332 244 224 235 206 243 283 306 320 320 323 332 329 313 292 274 275 275 265 283 290 280 277 251 226 218 207 206 221 217 185 168 170 155 155 175 182 192 191 169 166 222 200 196 198 189 188 188 181 179 182 181 183 186 191 192 190 192 195 195 195 195 198 192 170 186 226 244 86 123 134 113 117 143 134 131 140 147 150 153 160 164 163 165 169
338 353 351 346 326 268 269 179 199 295 302 311 316 316 318 318 323 327 247 247 299 294 282 285 270 258 223 197 205 207 198 224 228 179 170 173 152 150 170 182 198 205 190 199 230 217 199 192 191 206 207 191 166 162 178 184 188 191 190 190 190 193 195 198 204 202 195 194 201 214 235 247 171 124 88 83 105 123 141 151 154 156 156 160 163 162 166 170
357 354 6 350 304 297 319 321 317 312 304 301 295 289 310 321 328 337 316 288 311 292 243 263 272 267 250 212 217 229 214 230 217 174 178 174 155 151 163 182 201 206 207 223 222 211 207 182 172 214 213 192 161 159 174 179 185 188 188 189 190 192 194 198 205 205 198 204 202 182 224 238 241 359 49 60 64 113 150 153 155 158 159 162 163 165 170 171
8 339 350 344 298 292 299 299 302 300 297 306 315 312 322 325 325 331 332 312 305 276 194 234 295 287 279 265 247 233 225 224 192 183 184 161 160 160 162 179 202 199 202 221 207 197 220 176 158 213 212 197 185 174 174 177 181 185 187 187 189 193 195 197 204 208 211 220 238 14 320 274 277 321 24 55 64 112 135 144 158 162 162 164 165 167 171 172
9 330 331 324 299 290 295 304 307 291 296 324 341 336 330 322 322 331 328 306 297 309 100 178 256 271 277 273 253 238 249 294 329 208 357 110 158 167 166 171 189 189 194 211 194 191 218 163 150 225 213 194 193 185 182 185 183 184 188 187 188 191 192 198 205 207 219 234 249 287 289 278 269 60 58 77 104 140 148 156 167 168 164 166 170 171 173 172
349 324 321 315 303 303 317 330 332 312 315 342 339 334 327 315 321 327 320 295 263 268 275 281 284 275 255 256 256 253 266 297 310 322 337 351 124 202 200 173 182 187 186 192 185 189 210 179 166 223 216 185 182 183 186 187 186 189 193 190 190 191 191 197 203 206 215 228 238 251 260 255 113 100 103 130 147 168 172 169 173 174 168 170 176 175 173 172
346 328 324 311 294 299 322 335 338 326 330 341 324 323 312 305 316 324 323 303 204 241 254 269 294 296 244 234 249 264 287 301 304 318 318 307 308 297 287 322 304 220 179 179 180 176 195 197 182 216 209 169 174 182 180 179 188 197 197 192 190 190 192 197 201 207 217 224 230 235 243 29 65 55 20 139 163 195 195 178 178 180 174 174 177 175 174 173
Height
839 838 837 836 835 834 833 832 831 830 829 828 827 826 825 825 824 823 822 821 820 819 818 816 815 814 813 811 809 807 805 803 801 799 797 794 794 794 794 794 794 793 793 793 793 792 790 789 789 789 789 787 785 780 780 780 779 784 788 790 786 783 780 775 775 774 775 775 770 768 770 776 779 776 772 772 776 776 775 776 777 777 776 778 778 779 781 784
839 838 837 836 835 833 833 831 830 829 828 828 827 826 825 824 823 822 821 820 819 818 817 816 815 813 812 810 808 806 804 802 799 795 793 792 792 792 793 793 793 792 792 792 791 790 788 785 785 787 786 784 781 779 779 778 778 780 782 784 780 774 771 766 767 768 770 773 769 766 770 774 775 774 772 777 778 775 778 778 778 780 779 779 779 781 783 785
838 837 836 835 834 833 832 831 830 829 828 827 826 825 824 823 823 821 821 820 818 817 816 815 814 813 811 809 807 805 804 800 794 790 790 791 791 791 792 792 792 791 791 790 789 789 787 784 783 784 784 781 778 777 778 776 776 775 775 778 772 766 766 762 763 765 765 768 769 768 770 773 772 770 771 777 777 774 777 775 777 781 779 779 778 780 782 784
838 837 836 835 834 833 832 830 829 828 827 827 825 825 824 823 822 821 820 818 818 816 815 814 813 812 811 809 807 805 804 797 787 786 790 790 790 791 791 791 790 790 789 788 788 788 786 785 783 782 782 780 776 775 776 773 773 772 770 771 765 763 765 762 762 763 763 766 769 769 773 775 770 768 771 775 777 777 772 766 769 774 774 776 777 779 781 784
838 837 836 835 834 832 831 830 829 828 827 826 825 824 823 822 821 820 819 818 817 815 814 813 812 812 810 809 807 805 803 791 783 787 789 789 790 790 790 789 789 788 788 786 785 786 786 784 782 781 779 777 774 775 774 769 769 770 767 766 762 762 765 763 763 764 764 768 771 771 775 773 769 771 771 772 778 774 764 760 764 766 767 771 774 777 780 783
838 836 835 834 833 832 830 829 828 827 826 825 824 823 822 822 820 819 818 817 816 814 813 812 811 811 810 808 806 806 801 788 784 789 788 788 790 788 789 788 788 788 787 785 783 784 783 781 780 779 777 774 772 772 771 766 768 770 766 765 763 763 766 764 764 765 766 770 773 772 771 769 772 775 769 769 772 764 759 761 764 763 763 766 771 775 779 782
837 836 835 833 832 831 829 829 827 826 825 824 823 822 821 820 819 819 817 816 815 814 813 811 811 810 809 808 805 804 800 789 786 789 787 788 789 787 788 788 787 787 786 784 782 780 779 778 777 774 773 772 769 768 768 765 767 769 766 765 764 765 767 763 764 766 767 770 770 767 769 771 775 774 768 769 767 759 760 763 763 762 762 766 770 774 778 780
837 835 834 833 831 830 829 827 826 825 824 823 822 821 820 819 818 817 816 815 814 813 812 811 810 809 809 808 804 800 794 787 785 787 786 787 788 788 788 787 787 786 785 783 780 778 776 775 773 770 771 768 765 765 766 766 769 769 766 763 764 767 766 763 765 766 767 769 767 768 772 772 771 770 768 769 764 759 760 762 762 762 763 767 770 773 776 778
836 835 833 832 830 829 828 826 825 824 822 822 821 820 819 818 817 816 815 814 813 812 811 810 809 809 809 806 804 798 787 782 785 786 786 787 787 787 787 786 787 785 784 782 780 779 774 771 769 766 766 763 762 763 763 768 768 765 765 763 765 767 764 764 766 767 767 767 767 771 774 770 766 769 770 767 762 759 760 762 761 762 765 767 769 772 775 778
835 834 832 831 829 828 826 825 824 822 821 820 819 818 817 816 815 814 813 812 811 811 810 809 808 808 808 805 804 795 782 782 785 784 785 786 786 786 786 786 785 784 783 780 779 778 773 770 766 764 765 762 760 761 761 764 762 759 763 764 765 766 763 764 766 767 767 766 768 771 773 768 764 770 773 763 758 758 761 763 761 762 765 766 768 771 774 777
835 833 832 830 829 827 825 824 823 822 820 819 818 817 815 814 814 813 812 811 810 810 809 808 808 808 806 804 801 790 781 783 785 784 785 785 785 784 784 784 784 783 781 778 777 776 774 770 765 765 767 762 759 762 759 758 758 759 763 765 766 765 763 764 766 766 766 766 766 768 770 767 764 770 770 759 755 758 761 762 761 762 763 765 768 769 772 775
834 833 831 829 828 826 825 823 821 820 819 818 816 815 814 813 812 811 810 809 808 808 807 807 808 807 806 802 795 786 783 785 784 784 784 783 783 782 782 782 782 781 780 777 774 774 774 772 768 766 764 760 760 763 758 754 758 760 762 767 768 767 765 764 765 763 765 766 763 767 775 770 765 767 763 756 756 758 759 760 760 761 762 763 766 768 771 773
833 832 830 829 827 825 824 822 820 819 817 816 815 813 812 810 809 809 807 807 806 806 806 806 806 806 805 797 786 784 785 784 784 783 782 782 781 780 780 780 779 779 779 776 773 773 774 773 771 765 760 759 758 758 754 753 760 762 762 765 766 770 767 761 761 762 764 764 759 769 780 770 760 760 757 754 755 758 760 759 759 760 761 762 765 767 769 770
833 831 829 828 826 824 822 821 819 817 816 814 813 812 810 808 807 806 805 804 803 804 805 805 805 805 803 792 783 784 784 782 783 781 781 780 779 779 778 778 778 777 777 776 774 773 773 773 772 766 762 759 754 754 755 756 760 761 764 764 761 768 764 754 757 761 764 762 756 767 777 763 750 750 751 752 754 758 760 758 757 758 759 760 762 765 767 769
832 830 828 827 825 823 821 820 818 816 814 813 811 809 807 806 804 803 802 801 801 802 803 804 804 803 798 788 781 781 780 780 780 779 780 779 778 777 775 776 776 775 775 775 774 773 772 772 771 767 763 759 756 758 759 759 758 757 765 767 759 760 756 749 752 756 760 759 756 765 771 760 747 743 745 750 753 756 759 757 755 756 757 759 761 763 766 767
831 829 827 825 824 822 820 818 816 815 813 811 809 807 805 803 801 800 799 799 800 800 802 803 801 801 796 784 779 779 777 777 777 778 779 778 778 776 774 774 773 773 773 773 773 772 771 770 768 764 760 760 759 757 757 760 760 754 756 760 757 756 752 749 750 749 753 757 757 762 764 757 747 743 745 749 752 755 758 755 753 754 755 757 760 761 764 766
830 828 826 825 823 821 819 817 815 813 811 809 807 804 802 801 799 798 797 798 798 799 801 799 798 801 792 780 778 776 773 775 776 777 778 777 777 775 774 772 770 771 771 771 772 769 769 768 765 761 757 758 756 753 756 760 759 752 750 751 750 750 749 750 752 748 748 754 757 760 760 754 746 744 747 750 752 755 757 755 753 753 753 755 758 760 762 764
829 827 825 824 822 820 818 816 814 812 809 807 804 802 800 798 797 796 796 797 797 799 800 797 800 797 780 774 777 773 772 774 774 775 776 775 775 774 773 771 769 768 768 769 768 766 766 763 762 761 758 756 751 747 749 748 745 748 750 749 745 746 746 746 749 747 746 752 755 758 761 754 746 745 747 749 751 754 754 752 752 752 753 754 757 759 760 762
828 826 824 823 821 819 817 815 812 810 808 805 803 800 797 795 795 795 796 797 796 794 790 789 793 784 768 768 774 772 772 773 773 773 773 773 773 773 772 770 768 767 765 764 763 762 761 760 760 759 754 749 743 739 737 733 732 739 743 744 744 747 745 739 740 739 741 749 752 753 756 753 747 745 746 747 748 751 752 750 751 751 752 754 756 757 758 761
826 824 823 821 819 818 815 813 811 809 807 804 803 799 794 793 791 788 790 793 790 786 781 779 781 775 768 769 770 770 771 771 771 770 770 771 772 771 769 767 766 765 762 757 757 757 755 758 755 749 744 740 740 737 732 730 728 731 737 740 742 744 742 735 735 735 735 745 748 747 749 748 744 742 741 744 748 750 751 751 751 751 751 753 755 756 757 759
824 823 821 819 817 816 814 812 809 808 806 804 803 799 794 795 793 788 789 789 783 781 779 775 775 772 769 769 769 770 771 770 769 768 769 769 770 770 764 762 763 761 757 750 750 752 752 753 746 741 739 736 739 738 734 735 732 731 736 738 739 740 736 732 733 734 735 741 744 742 745 744 740 738 737 741 747 750 750 750 752 751 751 752 753 755 756 758
823 821 819 818 816 814 812 810 808 806 804 803 802 798 796 798 797 795 795 789 779 777 776 773 772 770 769 769 770 771 772 771 767 764 765 767 768 767 758 756 758 754 752 748 747 751 752 746 739 737 736 735 738 738 736 737 734 733 734 735 737 734 731 732 733 734 736 741 741 739 744 742 737 734 734 738 743 745 745 746 748 748 750 752 751 753 755 757
821 819 818 816 814 812 810 808 806 804 803 802 800 798 797 798 798 798 797 791 778 771 770 769 769 768 767 767 767 770 771 767 764 759 760 764 764 762 755 752 752 748 747 745 744 749 747 740 735 733 734 735 737 738 738 738 735 732 730 733 735 728 731 740 738 736 737 739 737 737 742 740 734 734 734 736 739 740 741 742 743 745 747 748 749 750 753 756
819 818 816 814 812 811 808 806 804 802 801 800 799 798 797 797 798 797 795 789 775 765 764 765 766 765 764 765 766 768 766 763 761 757 757 760 758 758 755 749 747 746 743 739 739 742 738 732 730 731 734 736 738 739 741 740 737 732 727 729 729 725 729 734 734 736 739 740 736 738 748 743 734 738 740 737 738 739 740 742 744 745 745 746 747 748 751 753
817 816 814 812 811 808 807 805 801 800 800 799 798 797 797 797 797 796 795 787 770 760 761 763 763 763 763 765 766 764 762 760 757 754 755 756 754 754 752 747 745 743 739 736 737 738 733 726 726 732 737 738 738 740 739 738 737 734 728 723 721 724 728 729 731 738 747 751 740 739 756 750 731 735 740 737 740 742 742 744 746 745 745 746 748 748 749 751
815 814 812 811 809 807 806 802 799 800 799 797 796 796 796 796 795 796 794 785 766 753 757 761 760 761 761 763 763 763 762 758 752 752 754 754 752 750 749 746 743 740 736 734 735 735 731 728 729 735 739 738 737 737 735 733 735 737 729 721 720 722 728 731 733 740 748 748 736 734 751 748 732 731 732 731 738 742 742 745 744 743 743 744 745 746 746 749
813 811 810 808 807 807 805 801 800 800 797 795 794 795 796 795 796 796 791 778 758 748 753 757 757 759 760 759 759 761 759 753 750 749 750 752 752 751 748 743 741 740 733 733 738 734 729 733 736 736 736 735 736 735 731 729 733 732 724 723 725 725 728 731 733 737 734 732 733 732 739 742 734 726 723 727 736 739 740 744 742 741 741 741 741 742 744 746
811 809 807 805 804 804 802 800 798 796 795 794 794 796 796 794 795 794 790 776 753 747 752 753 757 760 760 760 759 758 753 749 751 748 748 751 750 750 749 741 738 738 732 733 738 731 728 735 736 733 732 732 730 728 726 728 728 723 719 724 726 725 727 727 731 733 724 732 747 738 735 745 738 723 720 726 734 737 737 738 738 737 738 738 739 741 742 743
808 806 804 802 800 798 798 797 795 793 793 794 794 796 794 795 796 789 790 777 750 745 752 754 758 759 759 761 756 754 751 748 749 746 746 751 749 748 747 739 734 735 734 732 731 729 730 732 729 727 729 727 725 723 723 727 724 718 719 724 725 726 727 727 731 729 729 745 751 734 733 747 741 726 726 732 732 732 730 729 731 731 733 735 736 738 739 741
806 803 801 799 795 794 794 793 792 792 792 793 794 795 794 795 794 789 789 772 746 746 753 752 755 755 757 760 752 749 751 747 745 744 746 747 748 748 743 737 734 732 733 733 730 731 731 728 724 723 723 721 720 720 722 723 720 718 723 727 730 732 729 732 731 727 741 755 744 726 726 739 740 724 720 728 724 719 721 723 725 726 728 731 732 734 736 738
803 799 796 795 793 792 792 791 790 790 791 793 793 795 796 793 790 788 778 755 744 751 753 748 748 750 754 756 751 749 749 747 742 742 745 743 746 748 742 739 738 733 733 734 733 733 732 729 726 722 718 715 718 723 724 721 718 721 725 727 736 741 739 743 742 740 755 757 735 720 720 734 742 721 707 714 712 710 715 718 720 723 724 726 728 730 732 736
799 795 792 791 790 790 791 789 789 790 790 792 793 794 794 792 789 780 759 745 750 757 752 747 746 746 747 749 750 748 747 747 740 738 741 739 741 743 737 735 734 733 734 733 733 735 733 727 724 723 717 714 720 727 727 724 722 723 723 726 738 748 753 757 753 751 756 746 724 717 722 734 734 713 703 707 706 706 710 711 714 717 719 721 723 726 729 732
795 791 789 789 789 789 789 789 789 790 790 792 794 794 794 792 778 758 746 748 755 753 749 749 747 745 745 746 747 742 741 743 738 736 736 733 735 736 732 727 724 725 727 726 731 736 735 728 723 725 722 716 718 723 727 726 723 722 719 723 732 741 757 763 753 751 752 740 726 720 727 737 729 710 704 704 702 702 704 707 708 709 712 715 717 722 727 730
791 790 789 789 789 788 788 789 789 790 791 792 794 795 795 788 765 748 748 753 754 752 750 749 748 746 741 741 742 738 738 738 733 734 733 730 733 732 728 727 722 718 718 722 728 731 737 734 724 722 721 718 714 712 715 717 720 720 711 714 721 723 741 751 744 745 745 737 735 733 735 739 729 711 700 699 700 700 702 705 706 708 711 714 716 721 726 729
790 789 790 788 788 787 787 789 789 789 791 791 793 795 792 779 762 757 759 757 757 758 754 748 748 746 736 734 737 734 736 736 731 733 731 727 730 727 724 726 724 718 717 722 724 725 732 730 718 715 713 714 715 708 705 712 721 720 709 715 720 710 718 733 733 731 731 734 741 741 735 723 712 704 697 698 701 700 703 705 707 712 714 716 720 721 724 727
790 789 789 788 787 787 787 788 789 790 790 791 793 792 784 771 764 767 766 764 765 764 759 750 744 743 736 730 732 733 734 733 730 732 728 723 726 723 720 721 721 720 715 715 718 722 728 724 715 714 712 711 713 707 703 709 716 717 714 718 713 699 707 729 738 732 731 741 742 737 733 719 709 707 699 700 705 703 706 707 708 712 713 717 720 720 722 724
791 790 788 787 786 786 786 787 788 790 790 793 793 783 772 765 764 766 767 767 766 764 764 755 744 744 742 733 731 731 731 729 728 730 727 723 724 722 719 719 719 719 711 707 713 713 717 720 715 715 717 713 707 706 707 703 703 713 718 711 704 706 711 720 736 743 744 747 738 732 735 728 723 717 700 699 706 705 705 706 707 711 713 716 718 717 719 720
792 791 788 787 787 786 786 787 788 790 792 793 790 776 767 764 762 764 767 766 763 763 764 757 747 747 745 738 735 728 725 729 729 728 725 723 723 719 717 720 720 717 710 709 713 706 707 721 723 716 716 714 706 710 717 707 700 706 708 701 707 726 728 721 732 745 748 748 740 733 732 725 720 712 701 701 704 702 703 704 707 710 712 713 715 716 718 718
791 789 786 786 787 786 786 787 788 791 793 790 783 772 765 762 758 760 763 763 763 762 761 754 748 749 747 744 740 729 725 730 728 723 722 722 722 718 715 718 721 718 712 712 712 705 703 718 726 716 710 712 711 715 721 715 709 707 703 703 708 717 721 719 722 728 734 743 741 735 733 724 709 699 695 697 697 697 700 702 705 706 707 710 712 714 716 717
791 788 784 786 788 786 786 788 789 792 791 784 776 769 764 762 759 756 757 761 762 760 756 751 749 751 749 745 743 734 726 723 720 720 721 719 720 721 715 715 719 716 713 713 709 704 704 712 720 715 709 714 716 713 712 712 715 714 711 712 713 710 709 712 715 712 716 729 736 737 737 720 697 689 691 691 690 691 694 698 701 701 703 707 709 712 714 716
792 786 784 787 788 786 787 789 789 789 787 779 773 770 766 764 761 755 751 754 758 755 752 751 752 751 743 738 743 741 727 717 717 720 719 716 719 722 715 711 714 712 714 717 711 705 705 708 713 713 711 714 712 705 702 703 709 711 710 710 712 711 710 718 725 716 707 714 720 728 734 712 686 683 687 686 687 688 690 694 698 700 702 706 708 711 713 715
789 783 784 788 788 786 788 787 785 787 785 777 771 768 765 763 761 756 750 750 752 751 750 752 752 748 740 734 737 736 724 716 717 718 715 712 714 716 711 709 710 708 713 717 710 705 706 705 708 711 710 709 705 701 700 699 701 706 706 703 704 708 710 719 729 722 713 713 709 714 725 707 685 684 687 687 690 690 691 693 696 700 703 705 708 710 713 715
787 784 785 787 787 787 787 783 780 783 780 771 765 761 758 760 761 756 749 749 749 748 749 751 747 743 743 740 735 729 720 716 717 716 714 712 709 708 707 708 709 708 712 713 707 706 709 707 709 711 707 703 700 700 701 698 701 708 706 700 701 705 706 707 709 709 715 717 711 718 726 708 690 690 691 691 693 692 694 695 696 700 703 705 708 710 712 715
789 787 786 786 787 787 786 784 782 780 775 768 764 757 752 754 758 756 751 749 747 745 747 748 744 741 741 739 733 724 719 719 717 714 715 712 706 704 704 707 709 708 710 710 705 707 711 706 706 713 715 716 716 716 714 708 705 707 705 701 700 701 702 703 700 704 716 713 706 716 720 704 693 693 691 693 694 694 697 698 698 701 704 706 708 709 711 714
788 784 784 785 786 786 786 786 787 784 778 774 769 758 750 750 752 752 751 747 742 742 743 741 739 739 736 732 730 724 720 721 718 714 714 712 707 704 704 707 709 707 707 707 703 704 709 703 700 709 719 723 723 719 714 708 705 704 702 702 702 700 702 705 707 715 722 713 705 708 705 696 692 691 691 693 694 696 700 701 700 701 704 705 707 709 711 713
787 782 782 780 780 783 784 786 790 788 782 781 773 759 754 755 749 746 747 745 739 739 741 737 735 736 733 729 728 724 719 718 716 713 713 710 706 704 704 706 708 706 706 708 706 705 708 703 697 700 704 704 704 700 695 697 703 705 703 702 702 701 701 704 711 718 715 712 713 705 695 696 695 690 691 694 694 697 701 702 703 703 704 705 706 708 711 713
788 787 791 790 784 779 777 782 788 788 783 782 775 763 761 760 751 744 745 742 738 739 740 737 734 735 732 727 725 722 718 715 712 712 712 708 703 703 704 706 707 707 707 710 708 706 709 707 702 700 694 686 689 692 691 694 701 703 703 704 704 702 703 707 713 711 705 713 718 701 693 703 699 688 690 694 693 696 698 700 703 703 704 706 707 709 712 713
791 792 797 800 794 782 776 779 784 785 783 780 773 766 764 759 753 750 748 743 738 738 740 740 738 735 729 724 724 723 720 717 714 713 712 707 704 706 707 708 706 706 709 710 706 705 708 706 703 703 696 685 686 692 691 693 697 698 700 704 704 704 706 710 711 705 702 711 712 699 698 704 697 688 690 693 694 695 696 698 700 701 703 706 707 710 712 713
800 800 798 799 798 790 783 779 780 784 782 775 768 764 763 760 755 751 749 747 742 735 736 741 742 740 734 727 727 726 721 718 716 715 712 708 706 706 709 711 707 704 709 710 705 705 708 706 704 704 700 694 693 692 690 692 696 697 699 701 702 703 705 709 709 704 703 704 702 702 706 704 695 690 691 694 696 695 695 699 700 702 704 706 707 711 712 713
807 807 803 802 798 788 779 771 772 778 776 769 766 763 762 761 756 750 746 747 744 736 736 742 742 741 740 733 728 725 718 713 715 716 714 712 709 706 707 709 706 703 707 708 706 705 707 707 705 702 701 700 697 693 691 691 694 698 699 698 700 703 706 709 708 707 708 707 701 704 710 703 692 690 693 697 697 696 698 701 702 702 703 705 708 710 711 713
811 809 807 806 797 784 773 764 763 768 768 768 769 767 764 760 755 752 744 739 742 742 740 740 737 736 738 735 730 724 718 715 715 714 714 713 712 710 707 705 704 704 705 706 706 706 706 705 702 701 703 701 697 696 695 691 692 699 701 698 699 702 705 707 706 706 708 708 706 708 708 700 691 691 695 697 697 697 699 700 701 702 702 704 707 709 710 712
811 809 807 807 798 782 771 762 757 759 763 767 770 768 767 760 752 751 746 736 737 740 737 737 737 734 735 736 731 723 719 718 715 713 713 713 713 711 707 705 705 704 703 704 704 704 704 703 701 702 703 700 696 696 694 694 702 706 698 692 695 699 701 703 704 702 702 703 707 707 700 693 691 692 693 696 697 698 697 697 700 701 701 704 706 707 710 712